Location: Newark
(47.5833°N, 8.1500°E)
Time: 10:39:03
(UTC+00:00)

Vanguard 2 Rocket - Pass Details

Date: 28 October 2020
Orbit: 553 x 3326 km, 32.9° (Epoch: 04 December)

Event Time Altitude Azimuth Distance (km) Brightness Sun altitude
Rises 22:53:00 0° 247° (WSW) 3,621 - -55.7°
Reaches altitude 10° 22:57:54 10° 213° (SSW) 3,224 - -55.8°
Maximum altitude 22:59:59 11° 198° (SSW) 3,376 - -55.9°
Drops below altitude 10° 23:02:19 10° 183° (S) 3,730 - -55.9°
Sets 23:10:00 0° 155° (SSE) 5,561 - -55.9°
